ONEWEB-0713 (55175 NORAD) Tracking and Keplerian Element Data

This shows tracking and keplerian element data for the satellite.

Feedback or suggestion? Click here.




ElementValue
Catalog55175
NameONEWEB-0713
Epoch Orbit130
Epoch Day13.91667824
Epoch Year2023
RAAN284.1433
Inclination86.5101
Eccentricity0.0007996
Argument of Perigee203.6735
Mean Anonmoly54.9918
Mean Motion14.90427941
Decay Rate-0.00049814
L11 55175U 23004AM 23013.91667824 -.00049814 00000+0 -51565-2 0 9995
L22 55175 86.5101 284.1433 0007996 203.6735 54.9918 14.90427941 1309



Live tracking and technical data element details for ONEWEB-0713 (NORAD 55175). ONEWEB-0713 can be tracked NOW for your location showing map with azimuth and elevation plus other details from your city location.







IsCatalogInMostPopularTable: catalog: 55175, numindb: 3
Update: records affected: 1



GetName: 55175 ONEWEB-0713

Hit Count: updated at: Tue, 07 Feb 2023 14:42:23 GMT